Theta_e
352 352 358 360 360 360 360 360 359 358 357 356 355 354 354 354 354 353 352 350 349 349 349 348 347 347 348 349 349 348 350 351 351 352 352 352 352 352 352 352 352 351 352 352 352 352 352 351 351 351 351 351 352 352 351 351 351 352 352 352 352 352 351 351 350 350 349 348 348 348 348 348 348 348 348 347 347 346 346 346 345 342 342 343 345
350 354 358 359 359 359 360 359 358 358 356 356 355 354 355 354 354 352 351 350 349 349 349 348 348 349 349 349 349 350 352 351 351 352 352 352 352 352 352 351 351 351 352 351 352 352 351 352 351 351 351 351 351 351 351 351 351 351 351 351 351 351 351 351 350 350 349 349 348 347 347 347 347 347 347 347 346 345 344 345 345 341 340 345 345
352 354 358 359 360 359 358 359 358 357 356 355 355 355 355 354 352 351 350 350 349 349 349 348 348 349 348 349 350 350 351 351 352 352 352 352 352 352 351 351 351 352 352 352 352 351 351 351 351 350 351 350 350 351 350 350 350 350 350 350 351 350 351 350 350 349 348 348 347 347 346 346 346 346 347 347 347 346 346 347 346 345 341 345 344
351 354 357 358 359 358 358 358 357 356 355 355 355 355 354 353 352 351 350 349 349 349 348 349 350 350 350 350 350 351 351 352 353 353 352 352 352 352 351 352 351 352 352 352 351 351 351 351 351 350 351 351 350 350 350 350 350 349 349 349 350 350 350 349 350 349 347 345 345 344 342 339 341 345 346 347 347 347 345 345 344 344 343 344 344
352 354 356 356 357 357 357 357 356 356 355 355 355 354 353 352 351 350 350 349 349 349 348 349 350 351 351 351 351 351 352 352 353 353 353 352 352 352 352 352 352 352 351 352 352 351 351 350 351 350 349 349 348 350 350 349 348 348 347 347 348 349 350 350 347 347 346 345 344 342 338 338 338 343 344 344 345 346 345 344 343 343 343 343 343
351 353 355 355 356 356 356 356 356 355 355 355 354 354 352 352 351 350 349 349 349 348 348 348 349 352 352 352 351 351 351 353 353 352 353 352 353 352 352 351 352 351 352 351 351 350 351 350 349 348 348 349 348 347 346 347 346 346 346 345 346 346 346 347 347 346 346 346 348 338 338 338 338 339 343 343 343 343 344 343 342 341 341 341 341
349 351 353 354 354 355 356 355 355 354 354 354 354 353 352 352 351 350 349 348 348 348 348 348 349 352 351 351 351 351 351 352 352 352 352 352 352 352 352 352 351 351 352 351 351 351 351 350 349 349 348 348 348 346 344 343 343 343 343 343 344 344 343 345 345 344 346 346 338 338 338 339 339 340 343 343 344 344 343 342 341 341 341 340 340
348 351 352 353 353 355 355 355 355 355 354 354 353 353 352 352 351 349 348 348 348 348 348 348 348 350 351 351 351 352 352 352 352 352 352 352 352 352 351 352 352 351 351 351 350 350 349 350 349 349 348 347 347 345 344 342 341 342 343 343 343 343 344 345 347 344 348 344 337 337 339 341 341 341 343 343 343 343 341 340 339 339 339 340 339
347 350 352 352 353 356 355 355 355 355 354 354 353 352 352 351 350 349 348 347 347 347 347 348 348 348 349 351 351 351 351 352 352 352 352 352 352 351 352 351 351 351 350 349 349 349 350 350 350 350 348 347 345 344 343 343 342 341 342 342 343 345 345 346 347 349 337 335 336 336 338 339 339 340 343 343 341 339 339 339 338 339 338 339 339
349 350 351 351 353 355 354 354 354 354 354 353 352 351 351 350 349 348 348 347 347 347 347 347 347 348 348 349 350 352 352 353 352 352 352 352 352 351 351 350 350 350 350 349 349 349 349 349 350 349 349 346 344 344 344 343 342 343 343 344 345 345 345 346 348 344 335 335 335 336 338 341 338 339 341 342 342 342 340 340 341 342 342 343 341
348 349 350 351 353 354 353 354 354 353 353 352 351 351 350 349 348 348 347 347 347 347 347 347 347 347 348 349 350 351 354 353 353 352 352 351 351 351 351 350 349 349 349 349 349 349 350 349 349 348 346 344 343 342 344 343 343 343 343 344 344 344 344 346 346 336 335 336 337 338 341 343 337 338 343 340 339 338 338 338 344 345 344 344 343
347 347 349 351 356 353 353 353 353 353 352 352 351 350 350 349 348 348 347 347 347 347 347 347 347 347 348 349 350 352 353 353 352 351 351 351 350 351 350 349 349 349 349 349 350 349 349 346 346 346 346 345 344 343 344 343 343 342 343 342 343 344 344 345 344 333 334 334 335 335 336 337 337 339 341 341 340 340 339 341 342 342 342 343 343
346 347 349 351 351 353 353 353 353 353 352 351 350 350 349 349 348 348 347 348 347 347 347 347 347 348 348 348 349 351 352 352 352 351 351 350 350 350 350 349 348 348 348 348 348 348 348 347 346 345 345 345 344 343 343 343 342 343 341 342 342 343 345 348 339 333 333 333 334 334 334 335 336 339 339 340 342 342 342 342 342 342 342 342 342
346 347 348 348 350 355 353 352 352 352 351 351 350 349 349 348 348 348 348 349 348 347 348 347 347 347 348 348 349 351 351 351 352 351 350 350 350 350 349 349 348 349 348 348 348 347 347 347 347 346 344 344 344 343 342 342 342 342 341 343 342 344 346 344 338 334 334 332 333 332 333 335 336 340 340 341 342 343 343 343 343 343 342 342 341
345 346 347 348 349 350 353 352 351 351 351 350 349 350 350 349 349 349 349 348 349 350 349 347 347 347 348 349 350 350 350 350 350 349 349 349 349 349 349 348 348 348 348 348 348 348 347 347 346 344 343 343 343 343 342 341 342 341 342 342 345 345 347 342 334 333 333 333 333 335 335 339 342 341 340 342 343 343 343 343 342 342 342 340 339
345 345 347 347 348 348 349 352 351 351 350 350 349 350 350 349 349 349 350 350 350 349 349 349 349 349 350 350 350 350 350 349 349 349 350 349 349 349 349 348 347 348 348 348 348 348 347 345 345 344 343 342 342 342 341 340 342 341 343 344 344 346 350 343 332 330 331 333 336 337 338 339 343 342 341 342 342 342 342 342 341 341 341 341 339
346 346 345 345 346 347 348 348 349 350 350 350 350 350 349 349 349 349 349 350 350 350 349 350 351 351 350 350 350 350 350 349 349 349 349 348 348 348 348 347 347 348 348 348 348 348 348 347 345 344 344 342 341 341 340 341 341 341 342 343 345 346 346 338 330 329 331 337 339 338 338 339 342 342 341 340 340 340 340 340 340 340 340 339 339
344 344 343 344 344 346 346 346 346 346 346 348 349 349 349 349 349 349 350 350 350 351 351 351 351 350 350 349 349 349 349 349 349 349 350 348 350 349 348 348 347 348 347 348 348 348 347 347 346 344 343 342 341 340 340 341 341 341 342 344 345 346 350 340 333 335 336 339 337 338 337 341 342 341 341 340 340 339 339 339 339 339 338 338 337
343 343 343 341 342 343 344 345 346 346 345 344 343 347 349 349 349 349 350 350 350 350 351 351 350 350 349 349 349 349 348 348 348 349 348 347 347 350 347 347 347 347 347 347 347 347 347 346 346 344 342 341 340 340 339 340 340 342 342 343 345 346 346 337 333 334 335 334 335 335 337 341 341 339 339 339 338 338 338 338 338 337 337 337 337
342 342 340 340 340 341 343 344 344 345 344 344 344 344 348 349 349 349 348 349 349 350 351 351 349 349 349 349 349 348 347 346 348 346 347 347 349 347 346 346 347 347 346 347 347 347 346 347 346 344 343 340 340 340 339 340 341 342 343 345 345 345 334 332 333 334 334 335 335 333 339 339 338 337 337 337 336 337 336 335 335 334 335 335 335
343 341 340 339 340 340 341 341 342 343 343 343 343 344 347 349 349 349 349 348 349 349 350 350 350 349 349 349 348 344 342 342 341 343 346 344 347 346 346 345 346 346 345 346 347 347 347 347 345 344 342 342 341 341 341 341 342 343 344 344 344 334 334 332 333 335 334 335 335 334 338 337 336 336 337 336 336 335 334 334 334 334 333 333 333
340 342 341 340 339 339 339 340 342 342 343 344 345 345 346 348 344 344 345 346 347 349 348 347 349 346 349 348 345 346 341 341 342 345 341 343 345 347 346 346 345 345 345 346 346 347 347 346 345 344 343 342 342 334 336 343 342 344 345 345 337 335 336 332 332 332 333 332 334 335 336 336 335 335 335 336 336 335 334 334 333 332 333 333 333
339 341 341 340 339 339 340 341 341 341 343 345 345 346 344 343 344 344 345 348 347 347 344 346 343 345 346 346 345 344 342 342 343 346 343 345 343 346 346 345 345 345 346 346 346 346 347 346 345 344 343 343 337 333 332 331 332 341 345 341 334 334 333 331 331 331 331 332 331 336 336 336 336 335 334 334 334 335 334 332 331 332 332 331 332
339 340 340 343 340 339 340 341 341 342 342 343 344 343 343 342 342 343 344 343 343 344 342 342 342 343 344 342 340 336 337 338 345 346 344 339 340 346 346 346 346 345 346 345 346 346 346 346 346 345 344 342 335 333 331 329 329 330 332 332 334 336 332 331 330 330 331 334 332 337 336 335 335 336 337 336 336 335 333 332 332 331 331 332 332
338 340 340 342 342 342 343 343 343 343 343 344 343 342 343 341 341 341 342 342 341 341 341 340 341 341 339 338 339 338 338 338 336 338 340 340 338 335 337 337 337 337 345 337 338 342 342 339 341 343 340 338 335 332 333 329 331 333 332 333 335 334 331 330 330 330 330 331 333 336 335 335 335 336 336 335 335 334 333 332 332 332 331 332 331
339 337 339 341 341 342 343 343 344 344 343 343 343 345 343 342 341 342 343 342 341 338 337 338 340 340 340 339 339 337 338 337 338 338 341 339 337 335 335 334 335 335 340 338 337 337 337 340 340 340 339 338 335 333 334 335 330 332 333 333 335 331 330 330 330 329 329 330 333 336 336 335 336 336 335 335 334 334 333 332 332 332 332 331 331
337 337 339 340 340 340 342 343 341 342 342 345 344 343 342 344 344 342 339 338 339 339 339 339 340 341 340 340 338 337 336 336 337 338 338 339 337 336 334 334 335 334 336 337 337 338 339 339 338 337 338 337 336 335 335 336 332 335 333 333 333 331 330 329 329 329 329 330 335 335 336 336 335 334 335 334 334 335 334 333 333 332 332 332 332
336 337 338 338 339 340 342 343 342 341 341 343 342 342 341 341 343 340 339 342 339 338 338 339 339 340 340 340 340 338 336 336 337 337 338 338 338 337 336 334 334 334 334 335 334 336 338 338 338 335 335 336 336 337 337 337 333 332 332 333 331 331 330 329 329 329 329 329 332 335 336 336 335 333 334 334 334 335 334 334 334 334 333 333 333
335 337 338 337 338 340 341 341 341 342 341 342 341 341 342 341 341 339 338 341 337 337 339 338 338 340 340 339 341 339 338 338 337 337 339 339 338 338 336 335 335 333 332 331 333 334 337 336 336 335 334 334 333 334 335 330 328 332 331 331 332 331 330 329 329 329 329 329 329 333 336 335 335 336 335 335 336 336 335 334 332 333 332 332 333
335 337 337 336 337 338 340 340 340 341 341 341 340 339 339 339 340 337 338 340 337 337 337 336 337 338 339 338 338 340 339 339 337 339 339 338 339 339 337 337 336 334 333 330 332 336 334 333 335 336 335 334 333 333 333 331 329 332 331 331 331 331 330 329 329 329 329 329 329 333 336 337 336 336 338 337 337 337 335 334 333 334 331 331 331
338 335 335 336 338 337 339 340 340 343 339 337 338 338 340 339 339 339 340 338 338 339 338 337 338 338 338 339 340 340 340 339 337 336 338 338 337 337 337 337 336 337 333 332 332 336 336 334 334 334 335 336 335 335 333 331 328 330 332 331 332 332 331 330 329 329 329 329 330 332 335 336 335 336 337 338 337 336 334 331 331 331 333 333 331
337 336 336 337 339 339 340 340 340 341 339 338 339 336 336 338 340 337 338 338 338 337 337 336 337 336 337 338 339 339 340 339 337 336 337 337 336 336 336 336 337 338 338 333 331 333 335 335 335 336 336 336 335 333 334 331 327 327 329 332 332 332 333 331 331 330 329 329 330 330 331 334 337 336 337 339 338 336 333 333 332 331 333 332 331
338 339 339 339 340 340 339 340 339 338 338 338 337 337 339 340 338 335 337 341 338 336 335 336 336 337 337 338 338 340 341 340 339 338 340 337 336 336 336 336 337 338 338 338 337 334 335 334 334 336 338 335 334 333 335 331 327 329 329 331 332 333 333 332 331 329 328 328 328 328 330 332 333 338 338 336 340 335 333 334 333 333 333 332 331
339 339 339 338 340 341 341 339 338 336 336 337 336 337 339 338 338 338 340 339 337 336 338 336 337 338 337 337 337 338 338 339 340 339 340 337 337 336 335 335 335 338 338 338 337 337 334 333 334 335 340 336 333 333 332 331 330 331 331 332 331 332 333 332 332 330 328 328 328 328 330 330 330 330 332 335 337 336 337 335 333 331 333 330 329
340 339 338 338 340 339 339 337 339 336 338 336 338 338 339 339 337 338 337 337 338 336 336 336 337 337 337 335 337 338 338 340 341 339 338 337 336 336 336 336 336 338 338 338 337 337 336 333 332 331 333 333 332 334 333 331 330 329 331 332 332 332 333 332 333 331 329 328 328 328 330 330 329 329 331 329 335 335 336 336 333 330 329 330 329
338 338 338 339 338 338 339 336 337 335 335 334 335 338 339 338 338 342 337 337 339 338 336 336 337 336 336 335 335 338 340 340 339 340 338 338 336 335 336 337 338 337 336 336 336 335 335 334 333 332 330 329 332 331 332 331 331 330 331 331 332 333 332 331 331 332 332 330 329 329 329 329 328 328 333 327 327 332 336 336 335 333 330 330 329
339 338 339 339 339 339 340 336 336 336 335 336 336 337 337 338 337 337 336 336 337 336 337 338 339 338 337 335 337 339 340 340 340 339 338 336 335 335 336 337 337 335 335 336 335 335 334 334 332 332 332 331 331 331 330 329 330 331 332 332 332 332 331 331 331 332 333 331 331 331 330 329 330 337 329 327 328 329 335 336 331 333 333 330 330
340 338 338 339 339 339 339 338 338 339 338 337 337 337 338 337 336 335 338 335 336 337 339 340 339 337 336 336 337 338 338 337 337 338 336 337 336 335 335 337 337 335 334 335 334 336 334 333 330 333 332 330 328 328 327 329 331 329 329 332 332 333 332 333 334 335 331 331 332 332 332 332 332 331 329 328 328 328 329 332 331 331 332 333 332
340 339 339 339 338 338 338 339 337 336 336 336 336 336 334 336 336 333 332 333 336 338 338 338 337 338 337 336 337 337 339 337 337 337 337 336 335 334 334 335 338 336 334 333 333 334 333 332 330 332 332 331 328 328 328 329 330 330 332 333 335 334 334 334 333 333 330 330 332 334 334 333 333 332 331 330 327 327 326 326 325 324 327 334 332
336 338 337 337 337 336 335 335 335 335 335 334 332 331 331 333 332 332 331 332 336 337 339 337 337 337 338 337 337 336 337 338 336 336 336 336 333 333 333 334 334 334 333 331 332 332 331 331 332 331 330 331 331 329 329 327 326 332 332 331 331 333 333 332 332 332 332 330 332 333 332 332 332 332 331 331 328 327 325 325 328 327 328 332 333
335 337 336 335 335 334 334 332 333 333 332 331 331 331 330 331 332 331 329 332 334 335 336 337 337 336 337 338 337 336 336 336 336 336 335 336 334 332 333 333 333 332 332 332 333 332 332 333 331 330 329 329 329 331 328 327 327 327 329 328 328 330 333 332 330 331 331 332 331 331 331 332 331 331 331 331 329 327 326 325 327 326 327 327 331
333 333 333 334 334 335 334 332 333 334 335 336 334 333 332 330 329 329 330 331 332 332 334 335 336 338 338 338 337 337 336 335 335 333 334 333 332 331 332 333 333 332 333 334 333 334 333 332 331 329 331 329 328 331 329 327 324 323 323 322 323 325 330 329 330 331 330 332 331 330 331 331 331 331 331 331 331 327 326 325 326 327 326 328 328
334 334 336 336 336 335 335 333 332 332 331 333 332 332 333 336 334 333 333 332 334 335 335 336 338 338 337 338 336 335 336 335 334 334 333 333 333 332 332 333 333 333 332 332 333 333 333 332 331 329 328 329 328 332 329 328 323 324 324 321 316 317 321 323 326 328 329 329 330 330 331 331 331 332 332 330 330 329 327 326 327 328 327 328 329
331 332 333 334 335 335 334 334 332 332 330 331 333 332 334 335 335 335 335 334 333 335 335 335 336 335 333 336 335 335 336 335 335 334 333 333 333 333 332 332 333 333 332 331 331 332 332 332 331 330 329 325 327 326 330 329 328 324 318 319 319 318 312 318 322 324 329 329 329 330 331 331 331 332 331 329 329 329 330 328 329 330 329 328 329
330 331 332 333 334 331 332 332 332 333 334 335 335 334 333 331 332 334 334 334 334 334 332 332 334 335 335 333 335 335 336 335 334 334 334 334 334 334 333 333 333 333 332 331 332 333 333 333 332 330 329 327 325 326 328 330 329 329 324 319 315 314 315 316 322 320 327 328 329 329 331 331 331 331 330 329 329 330 330 331 330 330 331 330 330
330 332 334 334 334 334 334 332 332 332 332 333 335 335 333 332 331 331 330 330 329 329 329 330 332 332 334 336 336 336 336 335 335 335 335 336 334 333 333 332 333 333 333 332 333 334 334 333 332 331 329 330 328 326 325 328 330 330 329 326 323 317 317 320 320 314 323 326 327 330 330 329 329 329 329 329 329 329 330 331 331 330 330 329 330
331 334 334 335 335 336 336 336 334 335 335 335 337 337 334 333 333 332 331 330 328 329 332 334 334 334 336 335 336 336 336 335 335 335 335 335 334 333 333 332 334 334 335 334 333 333 334 334 333 331 330 330 329 325 325 326 328 329 330 329 329 329 326 322 316 318 317 322 325 325 326 328 327 328 329 329 329 329 329 331 332 332 331 330 330
327 329 330 331 330 330 332 334 333 332 332 333 334 334 334 333 332 331 331 330 330 330 332 332 334 335 333 332 334 334 336 336 336 336 335 334 334 333 332 332 333 335 335 334 334 334 334 334 334 332 332 330 329 327 326 327 324 325 329 328 328 329 329 327 325 321 318 317 319 325 326 326 325 326 328 329 330 329 328 330 331 332 331 331 331
325 325 326 326 327 327 328 329 328 329 329 330 330 331 332 332 333 333 331 332 332 332 334 333 332 332 331 331 331 331 332 334 334 334 333 335 335 334 333 331 332 333 335 334 334 335 334 332 332 331 331 330 329 329 328 327 327 326 328 327 327 326 326 325 326 325 318 316 316 320 320 322 325 326 327 329 329 329 329 330 331 332 330 330 330
323 324 324 325 324 324 324 326 325 326 327 328 328 329 330 331 329 330 331 330 330 331 331 331 331 330 330 330 330 329 330 332 332 332 332 333 333 334 332 331 331 332 335 335 335 335 334 333 332 331 331 330 330 330 328 328 329 328 330 329 327 326 324 323 324 323 322 321 317 318 319 321 319 323 327 327 329 329 330 329 330 331 331 329 330
321 321 321 321 321 321 321 322 323 325 326 326 327 327 328 328 328 328 328 328 329 330 328 329 329 330 329 330 330 329 329 329 329 331 332 331 332 334 333 332 331 333 334 334 333 333 333 332 332 332 331 330 330 329 328 329 329 329 329 328 327 326 324 323 323 323 321 318 317 317 320 322 321 320 325 329 329 330 331 330 329 331 330 329 330
Wind_Speed
7 12 10 14 16 17 16 17 17 17 17 16 16 16 16 16 16 16 16 16 15 15 15 15 15 14 14 13 12 13 12 13 13 13 12 11 13 13 13 14 14 14 15 14 15 16 16 15 16 15 16 16 16 16 16 15 14 13 13 14 16 15 15 16 17 18 18 18 18 18 17 16 17 16 17 17 17 17 16 16 14 10 8 12 17
12 11 8 11 17 17 17 18 17 17 17 16 16 16 16 16 16 16 16 15 15 15 14 14 15 14 13 12 13 12 12 12 12 12 11 12 12 13 14 14 14 14 14 14 15 15 15 15 15 15 15 16 16 16 16 16 14 13 14 15 15 14 14 15 16 17 18 18 18 18 18 17 17 16 16 17 17 17 16 16 16 8 7 15 17
13 12 9 13 17 18 18 18 17 17 16 16 16 16 16 16 16 16 16 15 15 14 14 14 14 13 13 12 12 12 12 12 12 11 11 12 13 14 14 14 14 14 15 15 15 15 15 15 15 15 15 14 15 15 15 14 13 13 12 13 14 13 12 12 15 16 17 17 18 18 18 17 17 16 17 17 17 17 17 17 16 14 11 17 16
15 10 10 13 16 17 18 18 17 17 16 16 16 16 16 16 16 16 15 15 15 14 13 12 13 12 11 12 12 12 11 12 13 12 12 13 14 14 14 14 14 15 15 14 14 14 14 14 14 14 14 14 13 13 12 11 10 10 11 12 11 12 12 12 13 16 17 17 16 12 7 7 9 15 16 17 17 17 17 17 17 17 17 16 17
15 10 10 10 11 14 18 19 17 17 16 16 16 16 17 16 16 15 15 14 14 13 12 12 11 11 11 11 11 11 11 13 12 12 13 13 13 14 14 14 15 15 15 14 14 13 14 14 14 14 14 13 12 11 10 9 8 7 8 8 9 8 10 10 12 15 17 17 15 9 6 8 6 13 15 16 16 16 17 17 16 16 16 16 15
12 11 11 9 11 12 17 18 19 18 17 17 17 16 16 16 16 15 15 14 14 13 12 11 10 11 11 10 10 11 12 13 12 12 12 12 10 13 14 14 14 14 14 13 13 13 13 13 14 13 12 12 11 10 9 8 5 5 6 7 8 8 6 5 8 6 16 12 10 5 5 6 6 7 15 15 15 16 16 17 16 16 17 17 16
14 10 10 10 9 12 16 17 20 19 18 17 17 16 16 16 15 15 14 14 13 13 13 11 9 10 12 11 11 11 12 13 12 12 12 11 10 12 14 14 14 14 14 13 13 12 12 12 12 12 11 11 10 9 8 6 3 3 6 8 7 7 6 6 3 4 5 3 4 6 5 6 6 5 14 14 15 16 16 15 15 16 16 16 16
11 10 10 10 9 13 16 18 19 19 18 17 16 16 16 15 15 14 14 14 13 12 12 12 10 10 11 10 11 11 11 12 13 13 13 12 12 12 13 13 13 12 13 12 11 11 11 11 11 11 11 9 8 7 6 5 4 6 8 10 8 8 7 6 7 7 9 1 6 6 6 7 6 5 13 14 15 14 14 14 14 14 16 17 16
12 11 11 10 10 17 16 16 17 18 17 17 16 16 16 15 14 14 14 14 13 12 12 12 11 11 11 11 11 11 11 12 12 13 13 13 13 12 11 13 12 12 12 11 10 9 9 10 11 10 9 9 6 6 5 5 6 8 10 10 9 9 8 6 6 7 9 9 7 6 8 7 5 6 13 15 15 14 13 10 12 15 16 16 16
12 11 11 9 9 15 15 15 15 17 16 16 15 16 16 15 14 14 14 14 13 13 13 13 12 11 10 10 10 10 10 11 12 13 12 13 12 11 11 11 11 11 10 10 10 9 9 9 10 10 9 7 5 4 4 5 6 7 9 9 9 9 9 10 12 7 8 9 8 8 8 10 5 6 12 14 15 15 14 13 11 12 13 17 18
12 10 9 10 10 13 14 14 15 16 16 15 15 15 15 14 14 14 14 14 14 13 13 13 11 10 10 10 10 10 11 13 14 13 12 12 12 11 11 11 10 10 11 10 10 11 10 10 10 10 8 5 5 4 5 5 6 7 8 9 9 10 11 12 9 4 8 9 9 8 11 14 5 4 14 15 15 14 14 15 16 17 18 18 18
11 9 9 10 14 13 13 14 14 14 16 15 15 14 14 13 14 13 13 12 12 12 12 11 10 10 10 10 10 10 11 13 15 14 14 13 12 11 11 10 10 10 10 11 10 11 11 10 9 8 7 5 5 5 6 7 7 7 8 7 8 8 9 8 4 6 9 10 10 8 8 7 5 9 16 15 15 14 15 15 15 17 18 18 18
11 9 9 9 10 11 11 12 12 13 13 13 13 13 12 12 12 12 11 9 10 11 10 10 9 8 9 10 10 10 10 12 13 14 13 12 11 11 10 10 10 10 10 10 10 10 10 9 8 7 6 5 5 5 6 7 8 7 6 6 5 6 7 9 7 9 9 8 7 8 5 4 5 12 13 14 15 15 15 15 15 16 17 18 18
11 10 9 9 9 14 11 10 10 11 11 10 11 10 10 10 10 10 9 7 8 9 8 9 8 8 8 8 9 9 9 9 10 12 13 12 11 11 10 9 9 10 9 10 10 10 9 9 7 7 5 5 5 5 5 7 6 7 6 6 5 5 6 5 12 10 9 9 7 8 5 4 5 11 13 14 14 15 15 15 16 17 18 18 18
12 11 10 9 9 9 15 11 10 10 9 8 9 8 9 8 8 8 6 8 8 7 8 9 8 8 8 9 9 9 8 8 10 11 11 10 10 10 9 8 9 9 9 8 9 9 8 8 7 5 5 4 4 4 5 5 5 6 7 7 7 6 4 4 9 9 9 8 6 6 5 6 11 11 13 15 15 15 15 15 16 17 18 17 17
12 11 10 9 9 9 8 13 13 11 9 9 8 9 9 8 8 7 6 7 7 7 7 7 7 7 7 8 8 8 8 8 9 9 8 9 9 9 8 7 8 8 8 8 7 9 8 7 5 4 4 4 3 4 3 3 4 6 8 9 10 9 6 9 9 10 8 7 6 6 6 7 13 13 13 14 14 15 14 15 15 16 17 17 17
11 11 11 9 9 8 8 7 10 15 11 10 10 10 10 9 8 8 7 8 8 7 7 7 8 8 10 9 7 6 7 8 8 8 8 7 7 7 7 7 7 7 7 7 7 7 8 7 5 3 3 3 3 2 3 4 6 7 8 9 10 11 10 13 10 8 7 8 8 6 5 5 12 12 13 12 13 13 13 14 14 15 16 16 16
11 10 10 9 8 9 7 7 8 7 6 9 10 11 10 9 8 7 7 8 8 7 7 7 8 9 9 8 8 7 7 7 6 5 5 5 4 5 5 5 5 6 6 6 6 7 7 7 5 3 2 1 1 1 3 5 6 6 6 7 8 8 7 11 9 9 10 9 7 6 5 9 11 12 13 13 13 13 12 13 13 14 14 14 14
10 10 10 9 9 10 8 7 7 6 6 5 4 8 11 10 8 8 8 8 7 8 8 8 8 9 9 8 7 7 6 5 5 4 4 4 3 4 4 4 4 4 5 4 5 5 6 6 5 3 2 1 1 1 3 4 5 6 6 6 7 10 8 8 9 9 9 7 6 5 5 9 11 12 13 12 12 12 12 13 13 12 13 13 13
10 10 9 9 9 9 8 7 6 7 6 5 6 5 10 12 10 9 9 9 9 9 8 8 9 8 9 8 7 4 5 3 4 3 3 1 2 2 1 2 2 3 3 3 3 5 5 5 5 4 3 3 2 2 2 4 5 6 6 7 8 9 4 6 10 10 8 7 6 6 8 10 11 12 11 11 11 11 12 12 12 11 11 11 12
6 9 9 9 9 8 8 6 6 8 7 6 4 4 7 10 8 9 10 9 9 9 8 9 8 7 7 7 6 4 3 3 3 2 1 1 1 0 1 1 1 1 1 2 3 3 4 5 4 4 4 4 3 4 3 3 5 6 7 5 4 4 5 7 8 7 7 6 7 6 11 10 10 11 11 11 11 11 11 11 11 12 11 11 12
6 6 6 7 8 7 7 6 7 7 5 4 4 4 4 7 4 4 4 6 7 8 5 4 6 3 7 5 3 2 2 2 0 1 1 1 1 3 2 1 1 1 1 1 2 3 4 4 4 4 4 4 5 2 3 4 6 8 8 7 3 4 7 6 8 7 7 5 5 8 12 11 11 10 11 11 10 10 10 11 10 9 11 11 12
6 5 6 8 8 7 6 6 6 5 6 4 5 5 5 4 4 4 4 5 4 4 3 3 3 3 4 4 2 2 1 3 4 3 2 1 0 2 2 1 1 2 1 1 3 4 4 4 5 5 4 5 3 4 3 3 4 7 7 4 2 4 7 8 8 7 6 5 5 12 13 12 11 11 10 10 11 11 11 10 10 11 11 11 10
6 5 6 6 7 6 5 7 7 6 6 5 5 5 5 4 5 4 5 4 4 3 2 2 2 3 3 4 4 2 1 1 3 4 6 1 1 1 3 3 2 2 2 2 4 4 5 6 6 6 4 3 3 4 5 4 3 4 3 4 1 4 6 8 7 7 6 7 6 14 13 12 11 11 11 12 12 11 10 10 11 11 11 11 11
5 4 3 4 6 6 6 8 7 6 6 6 6 5 4 5 5 5 5 5 4 4 4 3 4 6 6 4 4 1 1 2 3 5 2 4 3 1 1 1 1 1 2 1 2 2 2 2 3 4 4 4 4 5 5 5 4 3 5 4 1 6 5 7 7 6 5 5 6 12 12 11 11 11 10 10 11 11 10 11 10 10 10 11 11
4 5 4 6 7 5 5 6 5 4 5 6 6 5 5 5 5 5 5 4 4 4 3 3 2 3 4 4 3 3 3 3 3 0 1 3 4 4 3 2 2 2 2 4 3 3 3 4 4 4 5 4 4 5 6 6 5 5 5 5 3 8 5 6 7 6 6 5 7 12 10 11 11 11 11 11 10 11 11 10 10 10 10 10 10
5 4 4 6 6 4 5 6 6 5 5 5 5 5 5 6 6 8 6 3 4 4 2 3 4 3 4 3 3 2 1 2 3 2 0 1 2 4 5 4 3 3 3 5 5 4 4 5 5 5 4 5 6 5 7 8 4 5 6 3 6 7 7 7 7 6 6 6 7 12 10 11 10 8 10 9 10 11 11 10 10 10 10 10 11
5 5 6 6 5 5 5 5 5 5 4 5 6 5 5 6 7 7 6 4 4 1 4 3 3 3 5 4 2 3 3 3 2 2 2 2 0 2 4 4 5 4 3 5 6 5 5 5 5 4 5 6 7 7 6 9 6 5 3 2 7 7 6 7 6 7 6 5 5 9 11 11 9 7 9 10 10 10 10 10 10 10 10 10 10
7 5 7 7 4 4 6 5 4 5 4 5 5 4 5 6 6 7 7 3 1 4 4 5 4 3 4 5 5 5 4 3 4 4 2 1 1 0 3 4 4 5 4 6 6 5 5 6 5 6 6 6 6 6 8 5 4 4 3 2 8 7 6 7 7 7 5 5 5 8 13 11 10 9 10 10 10 11 10 9 9 10 9 10 10
6 7 8 7 5 4 6 6 5 5 5 4 4 4 5 5 6 7 7 6 4 4 5 4 5 5 5 5 6 5 6 5 4 4 4 4 2 1 3 2 2 4 5 6 6 4 5 5 5 5 6 6 6 7 6 3 2 4 5 3 6 8 8 7 7 6 6 5 5 5 10 8 8 11 8 10 11 11 11 11 9 9 8 8 9
7 7 7 6 5 5 5 5 4 5 5 5 3 5 5 5 6 7 7 7 7 6 5 4 4 5 4 4 4 3 3 4 4 4 3 3 3 2 3 2 1 3 4 7 6 5 4 5 5 6 6 6 6 5 3 3 3 4 3 5 6 9 8 7 6 6 6 6 5 4 6 9 8 9 9 9 10 10 9 7 8 9 11 10 10
7 7 6 7 7 7 6 5 4 4 5 4 4 5 4 4 6 6 6 7 7 5 5 3 2 2 3 4 4 3 3 3 5 5 5 4 3 5 5 3 1 2 3 6 6 5 5 6 6 6 6 6 7 6 4 2 4 3 2 6 5 7 8 8 7 6 6 6 5 5 5 5 8 9 9 7 9 9 9 10 9 9 11 10 10
4 7 9 8 8 8 7 5 5 5 6 6 5 5 5 5 5 5 5 6 7 6 4 2 3 4 4 5 5 6 5 6 7 7 7 6 6 5 4 2 3 5 4 5 5 2 2 5 7 6 6 5 4 5 4 3 4 3 2 5 5 6 7 8 7 7 6 6 5 5 5 4 4 6 6 7 6 6 8 11 10 10 11 10 9
6 7 8 8 6 5 5 5 5 4 3 4 4 4 4 4 4 4 5 5 4 5 5 5 5 5 4 4 6 5 4 4 5 6 6 7 6 6 6 6 7 6 4 4 3 3 1 3 7 7 6 6 5 5 5 5 4 1 6 5 5 6 6 7 8 7 7 6 6 5 5 5 5 3 3 7 7 6 4 10 10 9 12 9 8
8 8 8 7 6 5 5 5 5 4 4 3 4 4 4 4 4 4 5 4 4 3 4 4 4 4 3 3 3 4 5 5 6 6 6 6 6 5 6 6 6 6 5 4 3 2 2 2 3 10 7 3 6 5 5 5 3 2 5 6 6 5 5 5 6 8 7 7 6 6 5 5 5 4 3 3 5 6 5 9 9 7 8 9 9
9 8 8 6 6 4 5 5 5 4 3 4 3 3 4 4 3 4 4 5 4 4 3 3 3 2 3 4 3 3 4 3 3 5 5 5 5 5 5 5 5 5 3 3 3 4 2 3 2 9 2 6 9 7 4 3 3 3 5 5 6 5 5 6 6 6 7 7 6 6 6 5 5 5 3 4 3 4 6 7 8 8 9 10 9
9 9 8 6 5 3 4 6 7 6 4 3 2 2 3 3 3 3 4 3 2 4 4 4 4 4 4 4 3 4 4 4 3 3 4 4 4 4 4 4 4 5 4 3 4 3 3 4 5 8 8 8 6 7 8 10 5 3 4 4 5 5 6 6 5 6 6 7 6 6 6 5 5 6 5 4 3 3 5 8 10 7 8 10 10
8 8 7 7 7 5 3 3 3 3 3 4 4 4 4 3 3 2 1 2 2 2 4 5 4 3 2 4 3 3 3 3 3 3 4 4 4 4 4 4 5 5 5 4 3 3 4 4 5 3 4 5 5 3 5 6 9 4 3 4 4 5 5 5 5 5 6 6 6 6 6 7 6 5 5 5 4 4 3 7 10 8 9 10 10
5 6 6 5 5 4 3 3 3 3 3 3 3 4 3 3 3 1 1 3 3 3 2 2 4 4 4 4 4 5 4 4 3 3 4 4 4 4 4 3 3 4 4 4 3 3 3 5 4 1 2 5 3 5 8 10 5 2 2 1 5 4 4 5 5 5 5 5 6 5 6 6 6 5 5 5 5 4 4 4 4 3 4 9 11
5 6 6 6 6 5 4 3 3 2 2 2 2 3 1 2 4 2 2 3 4 3 4 5 4 5 5 5 5 5 4 4 4 4 5 5 4 4 4 3 3 4 3 3 4 5 5 4 4 2 2 4 4 4 5 5 2 5 4 3 2 4 4 4 4 3 5 5 6 6 6 5 6 6 5 5 5 4 5 4 4 4 3 6 10
6 5 5 4 4 5 4 3 2 2 2 2 1 1 1 0 0 2 2 3 4 4 3 4 5 5 4 5 5 5 4 3 4 4 5 5 4 3 4 4 4 4 4 4 4 4 4 3 4 3 4 4 6 1 5 7 2 2 2 4 4 4 3 3 3 4 4 5 5 6 5 6 6 6 5 5 6 6 5 5 5 4 5 5 6
6 7 4 5 4 3 3 2 1 1 0 1 2 3 1 2 3 3 3 4 5 4 5 4 5 5 5 4 4 4 3 3 3 3 4 4 3 4 4 4 4 4 4 4 3 4 4 3 3 2 3 6 6 2 2 6 2 1 2 1 3 5 3 2 1 1 3 4 6 6 6 6 7 6 5 5 5 6 6 5 5 5 5 5 4
6 5 6 6 5 5 5 3 2 1 1 1 1 1 1 1 1 2 2 2 2 3 3 3 3 5 4 4 3 3 3 4 3 3 3 3 3 4 4 4 5 4 4 5 4 5 5 5 5 5 3 3 3 2 3 5 4 1 3 2 1 2 2 1 1 1 3 2 5 6 6 7 8 7 6 6 5 6 6 6 6 6 6 6 5
5 6 5 5 4 4 4 3 3 3 1 1 1 3 3 1 1 1 2 1 3 2 2 2 2 1 2 4 3 3 4 5 4 4 4 4 5 5 5 4 5 5 6 6 6 7 5 5 5 5 5 4 5 3 4 5 5 7 2 5 2 4 1 5 5 3 4 3 4 6 6 6 7 6 6 7 6 6 6 6 7 6 7 7 6
5 5 4 4 3 4 3 3 3 4 5 5 5 3 2 1 2 4 3 4 3 4 4 5 4 4 3 4 6 4 4 4 4 4 5 5 5 6 5 5 5 5 5 6 7 7 6 6 6 6 7 7 5 3 3 5 6 6 5 2 1 1 4 3 5 3 3 3 3 5 5 6 7 7 6 7 6 6 6 6 6 5 5 6 6
5 5 5 6 5 4 3 2 1 1 1 1 1 1 1 1 1 3 4 4 5 4 5 6 6 5 6 5 4 5 6 5 5 5 6 6 5 3 3 3 5 5 6 6 6 5 5 6 7 7 8 7 7 6 4 4 7 8 9 5 3 4 3 2 5 4 1 3 3 3 5 5 4 7 5 6 7 6 6 7 5 6 5 6 7
5 4 4 4 5 5 4 4 2 4 4 5 6 2 1 1 0 1 2 4 5 5 4 4 5 5 5 5 6 5 6 6 5 5 5 5 4 5 6 5 6 6 6 6 7 7 7 7 6 7 7 6 6 7 7 6 4 5 6 8 3 2 3 5 5 3 4 2 2 3 3 3 3 5 5 7 7 7 6 6 7 6 6 6 6
6 7 7 7 8 7 6 7 6 7 7 7 7 8 5 2 1 2 2 4 3 4 3 2 3 3 2 3 3 4 4 4 4 4 4 3 3 4 6 7 7 7 6 7 7 6 5 5 7 8 6 7 8 8 8 6 9 7 8 8 6 5 5 3 3 6 5 7 4 1 2 3 1 5 5 5 7 8 8 7 7 7 6 6 6
7 6 6 7 6 6 6 7 8 7 6 7 7 8 6 6 6 5 4 4 3 4 5 4 3 2 4 4 3 2 2 3 4 3 3 3 3 6 4 5 6 6 6 6 7 7 8 7 7 7 8 8 8 8 7 8 8 7 8 8 8 7 6 8 3 2 3 5 4 6 5 3 3 4 5 5 5 7 8 8 7 7 7 7 6
6 6 6 5 5 5 6 6 7 5 5 6 7 7 7 6 6 6 6 5 5 5 5 6 5 3 4 5 3 2 3 4 4 3 3 4 4 5 6 8 7 6 7 8 7 6 6 6 7 8 8 9 8 8 9 8 8 7 8 8 9 7 7 6 3 3 1 2 5 8 7 8 7 7 6 7 7 7 7 7 7 6 7 7 6
7 6 6 5 4 5 4 6 5 5 5 6 7 7 7 7 7 7 8 8 9 7 7 7 6 6 5 5 5 5 2 1 4 4 4 3 4 5 4 3 4 6 6 7 5 5 5 5 5 6 8 9 8 9 8 8 7 7 8 8 9 9 10 8 6 5 4 3 3 4 5 7 8 6 8 8 7 7 7 7 7 6 7 7 6
Wind_Direction
114 128 129 126 123 121 118 114 114 113 114 114 114 114 113 112 110 107 104 103 102 101 97 96 97 97 97 96 94 91 87 83 80 79 82 85 88 90 95 98 100 100 99 99 99 98 99 97 95 92 90 90 90 93 94 92 90 90 90 91 92 92 93 94 93 94 91 83 78 77 79 78 79 79 79 79 79 79 76 74 71 67 67 68 68
134 126 122 124 122 121 117 114 116 116 115 116 117 117 117 115 112 110 108 105 104 102 100 98 99 99 98 99 98 94 87 88 89 81 80 89 92 96 97 98 99 99 98 99 98 96 97 97 96 94 93 93 92 92 93 95 92 93 95 93 93 96 98 100 99 96 91 87 82 78 75 75 76 77 79 81 81 80 79 76 73 68 66 71 70
122 124 124 124 122 120 117 117 115 118 118 120 122 121 119 117 114 112 110 108 105 104 101 99 99 99 97 95 95 98 97 93 90 95 97 92 97 99 100 100 102 102 101 99 98 98 98 97 96 96 94 91 92 92 94 94 95 94 94 99 102 103 101 102 102 98 94 92 88 83 77 76 79 77 78 81 83 82 83 82 78 74 76 72 69
121 119 120 123 121 119 119 119 118 120 123 125 126 125 121 118 116 113 110 109 108 106 101 100 102 103 101 99 101 99 98 94 85 86 92 100 102 102 104 105 104 102 102 101 98 97 96 95 91 91 89 86 85 86 87 88 92 96 101 101 101 106 111 114 115 105 92 86 82 73 70 64 67 78 82 83 84 88 86 82 81 80 77 75 73
114 115 116 117 117 121 122 121 123 126 127 129 129 125 121 118 116 114 111 110 109 108 104 100 103 106 104 104 103 106 102 92 91 94 97 102 106 106 103 103 103 102 102 102 102 100 94 90 87 84 84 85 85 82 83 83 83 88 86 93 99 100 122 124 102 99 100 96 87 80 81 78 67 77 78 81 87 85 85 84 82 81 80 78 79
116 119 119 120 120 124 125 126 128 131 131 132 128 125 121 119 118 115 112 111 111 109 105 99 102 107 106 107 106 104 101 93 94 97 98 102 103 106 103 102 102 103 102 99 95 92 89 87 87 87 86 86 84 84 83 85 85 96 96 91 76 70 67 87 103 106 107 81 63 75 78 85 87 79 86 84 83 82 84 86 86 84 82 80 80
121 120 122 123 123 129 131 131 133 134 133 132 129 124 122 120 118 116 114 114 113 113 108 102 94 108 109 109 108 102 99 96 95 97 100 99 100 104 106 99 98 97 94 90 87 84 89 93 92 90 88 87 86 88 89 86 75 55 54 59 63 49 60 15 29 287 272 98 63 80 73 75 79 88 92 91 86 80 80 85 89 88 85 84 84
116 121 123 126 127 133 134 133 133 133 133 131 126 123 121 120 120 118 117 118 117 117 113 111 106 107 111 112 111 109 105 102 101 101 101 98 93 93 92 97 96 94 89 86 87 88 90 94 96 96 93 89 92 96 91 79 34 23 30 35 41 44 36 29 353 309 277 130 108 99 87 78 66 66 94 91 87 82 82 85 86 88 89 88 85
120 122 124 124 131 134 133 131 132 133 130 127 125 122 122 122 122 123 123 123 126 124 124 120 118 117 108 108 112 112 115 111 107 104 101 103 100 101 95 89 87 80 78 75 77 87 98 97 93 89 89 91 95 95 83 67 36 23 27 30 32 26 22 7 340 344 77 104 112 110 97 87 85 79 83 85 89 88 85 80 81 86 91 89 87
125 125 123 120 127 130 131 130 130 130 127 125 123 127 129 128 130 130 131 133 134 134 132 130 126 125 113 103 98 101 110 121 114 109 109 110 112 102 96 94 91 90 89 87 88 94 99 97 93 90 86 87 87 74 65 53 43 40 29 26 21 13 5 3 15 42 82 93 96 92 89 85 73 77 88 87 89 92 97 98 95 91 89 90 89
118 117 115 117 124 128 128 126 126 128 129 128 131 134 136 136 136 138 140 140 139 139 136 133 129 123 113 101 95 100 105 115 119 116 114 113 110 102 93 90 85 87 87 87 85 86 87 87 87 86 90 87 72 50 36 41 39 42 34 26 21 8 5 358 21 91 94 92 90 85 87 86 85 91 88 89 92 92 92 90 84 85 87 89 90
107 109 114 124 131 127 129 127 128 133 135 137 138 139 140 140 140 142 143 141 138 138 136 132 131 124 116 107 104 100 104 111 117 119 118 115 111 102 95 89 88 87 89 89 89 88 86 91 94 99 100 93 75 49 27 24 21 27 33 29 18 11 354 348 2 78 82 80 80 78 79 85 79 93 95 97 97 95 90 85 81 80 82 82 84
109 109 112 119 119 121 120 123 130 134 137 137 140 141 140 139 140 140 139 138 139 136 135 131 126 120 114 112 108 106 107 111 117 119 120 118 111 102 97 91 90 91 95 98 99 97 97 96 98 101 101 91 75 60 37 17 11 11 15 17 9 0 354 14 102 91 84 80 82 86 83 87 93 98 98 95 91 88 88 89 87 85 84 83 81
104 104 106 107 116 123 112 116 122 130 136 138 139 141 137 137 135 136 138 139 135 130 126 125 127 124 118 115 111 103 100 106 113 115 116 118 110 100 96 93 89 90 95 100 101 101 98 96 99 98 91 77 64 52 45 22 5 348 344 352 348 356 19 57 97 91 86 85 87 90 89 87 91 92 96 96 96 96 92 89 88 85 82 78 77
108 106 107 114 117 118 123 119 124 129 132 133 133 133 127 126 129 135 138 137 130 122 126 129 129 130 126 114 106 102 104 105 109 111 113 114 114 100 94 95 92 89 98 104 102 98 99 97 91 93 92 84 65 47 33 20 349 332 338 340 347 342 8 101 104 99 99 95 87 85 82 90 95 101 92 89 91 88 87 85 85 85 83 80 79
103 108 110 112 119 124 130 135 132 131 133 134 133 131 132 134 137 141 137 131 118 122 123 123 131 133 115 105 106 103 103 99 97 100 103 110 108 104 98 96 94 91 95 101 106 104 98 98 99 96 88 79 69 45 12 3 336 340 350 348 337 336 24 94 101 97 97 96 92 81 77 90 101 99 95 93 93 88 84 84 81 81 82 84 82
103 106 112 118 121 123 138 141 142 144 139 140 140 138 138 139 141 138 135 122 125 126 123 111 105 99 104 109 102 95 94 95 90 94 99 109 113 114 102 96 93 94 96 104 109 111 107 104 107 99 93 90 65 25 358 340 344 350 344 339 342 346 68 110 109 109 104 99 95 86 83 85 91 93 97 93 88 88 83 80 79 82 81 81 82
107 115 116 126 132 135 141 143 144 138 139 142 143 141 144 142 139 134 126 118 120 114 109 108 104 106 109 107 104 97 92 84 86 90 100 104 92 111 105 94 96 91 98 105 120 118 117 118 121 121 112 112 94 2 340 339 343 338 330 337 349 358 9 97 98 100 100 101 99 99 93 102 99 96 96 97 95 90 86 84 82 82 83 84 83
114 117 131 142 144 146 146 143 140 134 126 120 131 152 148 139 137 138 126 122 114 113 112 114 114 110 106 102 101 95 89 87 80 68 73 81 86 83 99 90 88 96 97 110 124 131 128 130 136 147 159 193 207 314 330 334 317 317 324 331 356 12 48 87 97 98 99 97 102 101 106 102 99 99 97 96 100 96 90 82 80 84 83 84 84
123 138 152 153 150 146 141 140 139 137 138 148 151 148 152 144 141 139 133 127 117 107 109 123 123 116 112 107 103 91 80 68 91 83 87 53 63 61 77 81 82 84 103 123 135 136 147 145 146 163 179 194 222 246 288 284 302 305 318 343 0 25 50 97 98 101 105 104 103 99 100 103 103 96 96 96 93 91 87 89 84 84 84 85 86
138 161 168 151 145 134 136 138 143 150 154 150 129 127 148 145 135 136 135 131 118 110 116 133 127 122 109 100 81 63 56 33 16 16 58 15 338 2 180 126 66 66 110 138 141 164 163 160 158 177 199 212 225 232 246 280 293 303 302 302 8 55 75 104 105 103 101 107 106 109 109 105 106 107 101 95 91 87 88 85 86 89 93 90 88
156 159 146 126 122 129 143 148 148 151 140 115 119 125 138 133 123 130 121 124 125 115 106 111 120 91 112 95 80 81 97 103 32 324 42 323 318 312 201 165 354 314 84 184 182 188 188 174 179 193 219 238 252 277 290 289 290 291 297 311 43 52 115 118 110 106 108 109 112 114 113 113 109 104 105 102 101 97 93 91 90 92 94 92 94
153 109 84 122 135 135 151 144 139 134 129 120 128 136 136 135 132 125 115 106 115 105 105 109 90 98 93 113 110 40 71 157 172 162 193 212 167 249 212 213 275 280 252 224 227 213 200 194 197 204 219 242 269 286 281 276 281 288 291 308 58 63 118 112 106 113 114 119 111 116 115 114 115 112 108 106 104 104 103 96 98 102 100 93 89
115 114 145 133 128 129 144 131 139 135 125 125 122 139 147 139 127 114 101 99 98 98 98 77 98 135 119 82 70 106 184 54 329 218 177 137 44 215 213 217 246 267 258 273 256 237 220 216 215 212 227 254 268 281 287 270 255 271 289 283 74 108 123 117 121 117 119 120 122 125 121 120 119 116 112 110 108 107 104 111 112 103 101 102 107
106 116 117 103 92 93 105 121 124 125 124 124 135 148 146 130 123 112 111 113 116 94 70 49 45 58 75 91 95 177 281 56 79 349 135 146 146 131 5 331 341 305 267 302 296 288 243 244 231 224 234 243 256 261 268 266 247 244 254 259 188 124 125 117 117 118 121 123 128 128 124 120 120 117 117 114 114 107 104 106 107 106 106 102 103
104 138 157 95 77 84 85 96 99 100 119 131 141 142 123 105 115 107 99 69 74 73 92 99 82 92 122 143 151 174 182 125 83 207 340 142 174 185 190 201 240 233 210 239 254 253 237 244 233 230 232 241 245 257 257 251 244 228 244 248 100 120 121 110 111 117 122 126 127 129 130 124 122 128 129 121 118 117 116 113 110 110 111 114 109
139 156 112 89 97 96 81 93 94 86 86 102 115 122 107 91 90 88 82 92 78 81 112 141 130 130 138 155 152 188 111 93 148 176 166 10 188 199 209 194 210 216 213 215 241 232 217 233 236 230 232 235 242 241 252 255 224 220 221 226 100 128 125 120 119 124 125 124 131 133 128 127 136 145 129 130 125 124 122 121 123 125 126 120 118
133 136 93 96 116 102 83 92 103 103 108 104 105 113 111 96 92 93 71 81 77 112 198 154 137 147 157 155 169 185 142 163 199 156 178 177 176 236 218 211 199 207 210 212 234 228 214 229 235 230 227 236 242 241 236 244 215 204 163 190 97 127 127 125 126 126 131 133 133 142 134 139 144 133 135 136 134 132 128 128 130 135 129 119 121
138 126 112 109 97 103 98 100 115 121 124 119 114 114 105 107 108 102 86 86 142 209 225 130 159 196 183 163 182 177 160 176 190 185 144 155 189 223 288 247 209 202 208 224 228 234 221 225 230 232 226 240 246 259 252 226 154 166 158 143 112 130 130 128 130 134 135 134 133 143 144 148 152 153 148 145 138 133 134 138 134 130 124 124 119
154 133 115 111 122 120 121 141 149 141 127 102 125 106 105 110 105 111 132 134 215 219 231 193 178 180 196 184 195 177 161 175 172 154 152 185 192 174 235 262 279 240 207 220 232 237 234 243 239 235 241 244 252 253 237 217 170 164 177 125 126 137 136 137 139 141 142 136 139 141 143 135 157 168 162 134 138 142 142 139 132 135 133 128 125
144 135 116 119 132 134 142 157 154 133 112 110 109 101 108 117 122 130 136 151 187 211 225 205 180 191 178 193 204 190 165 147 158 170 160 178 184 181 217 207 234 303 280 233 225 235 247 240 246 245 254 257 258 263 264 198 188 187 174 130 137 134 139 138 141 143 143 143 141 144 144 143 137 143 134 141 146 146 149 135 132 136 132 134 133
152 135 121 131 149 155 157 158 138 126 119 131 135 131 135 150 139 133 147 167 172 191 220 228 204 170 183 194 180 171 160 155 171 180 182 182 195 213 216 187 173 209 293 288 254 227 243 249 244 251 253 254 257 276 290 206 210 195 179 143 145 127 131 142 142 146 145 144 145 153 146 138 142 151 152 165 160 159 150 143 141 144 138 138 138
133 114 124 139 141 153 154 141 127 123 134 145 149 151 153 152 136 149 172 181 179 180 200 212 220 207 200 196 189 183 180 175 175 184 184 182 181 206 215 125 197 196 211 260 282 269 284 270 246 244 245 227 247 269 283 228 221 238 141 148 130 126 129 140 143 144 151 152 152 150 148 145 147 154 163 174 171 151 149 143 146 151 141 142 147
126 113 120 130 145 146 127 123 128 136 139 133 149 142 147 144 132 150 178 188 194 174 180 182 194 213 206 189 183 181 187 184 174 178 176 183 187 190 192 174 213 205 189 207 251 270 123 346 296 247 226 216 222 238 256 267 251 136 146 142 129 140 136 134 143 152 151 156 156 153 148 141 135 152 172 178 152 151 150 151 161 155 150 148 146
112 115 126 139 145 137 139 132 140 157 156 156 170 168 149 143 149 160 175 180 179 190 198 196 199 207 184 196 192 192 202 201 183 178 180 177 179 186 188 198 193 193 193 176 202 227 129 117 317 289 282 352 289 245 230 223 238 129 162 133 136 146 133 136 129 143 152 154 156 157 152 150 152 160 155 144 150 137 152 158 155 156 152 144 145
122 128 129 139 141 151 152 147 154 173 171 180 191 152 139 143 164 169 188 198 190 192 210 213 209 203 186 194 202 210 210 221 201 176 175 172 168 180 189 184 186 185 177 173 178 220 183 119 123 276 254 251 246 271 245 231 224 152 176 134 148 134 129 135 144 127 150 149 157 157 160 156 154 158 152 150 142 153 145 142 146 160 162 154 161
122 131 138 139 145 164 164 150 164 176 168 188 176 127 123 138 149 162 199 228 201 166 196 202 200 203 212 212 200 206 205 204 212 192 166 160 166 172 189 182 179 186 188 189 186 205 213 166 193 230 223 208 234 252 353 324 279 178 174 132 149 131 132 143 145 126 139 148 155 155 159 156 162 164 151 158 148 151 162 158 154 159 154 159 165
117 119 125 133 140 146 152 143 133 151 166 160 157 149 138 137 146 180 214 261 266 243 186 171 174 200 211 223 219 215 206 200 197 178 173 177 171 172 186 178 175 179 190 193 200 186 204 205 216 276 16 337 260 161 239 249 262 71 268 131 115 117 133 118 122 131 138 148 153 151 156 156 159 153 159 161 157 161 169 155 161 170 168 159 162
94 111 113 109 111 112 101 117 99 77 90 101 110 91 90 120 129 111 299 282 274 263 234 196 179 187 207 216 211 212 209 196 195 187 180 183 176 170 178 196 187 184 185 205 201 205 214 190 198 112 176 200 268 270 204 216 230 38 51 22 106 112 102 100 112 126 139 145 150 149 139 150 146 149 156 163 159 156 154 156 164 172 150 149 159
84 88 91 96 94 85 79 72 92 106 94 84 67 76 77 125 147 156 226 270 274 251 216 201 191 189 202 202 208 210 209 199 196 198 190 185 184 180 181 187 177 163 175 206 219 206 210 176 151 150 214 256 255 275 297 250 150 109 115 30 54 101 97 101 110 122 146 151 149 147 150 148 149 155 160 158 163 161 160 166 168 164 157 164 164
63 68 91 89 92 108 110 113 151 137 110 90 64 120 148 240 106 164 209 227 234 245 233 217 213 209 199 202 201 198 196 205 204 196 200 199 192 183 174 178 179 180 183 206 213 216 202 170 140 150 188 222 250 241 52 26 15 77 55 70 14 357 66 80 122 128 153 158 147 152 153 148 159 163 171 162 166 169 171 172 175 169 166 171 177
130 132 133 119 121 113 110 149 202 157 103 174 213 197 206 173 161 197 193 205 223 231 240 214 212 217 214 206 203 188 189 202 214 202 202 196 198 192 183 186 186 196 204 194 203 187 192 187 147 152 198 204 224 136 180 103 296 318 148 113 18 333 347 23 64 174 161 171 162 156 162 161 166 170 166 169 166 172 176 181 181 181 173 164 167
89 99 121 129 124 127 141 158 177 127 175 207 155 238 298 296 158 210 187 223 215 201 209 212 196 219 223 214 208 195 186 206 213 211 203 203 211 210 206 200 200 193 199 205 201 197 186 186 182 174 176 211 219 153 168 151 135 358 346 43 253 242 295 343 311 253 203 194 158 162 171 169 173 169 167 169 171 172 178 187 190 182 176 166 165
65 57 57 89 108 127 158 171 170 156 208 243 217 232 232 237 0 287 297 279 263 308 333 318 305 200 215 202 210 204 205 210 203 207 213 209 204 216 218 205 207 195 194 200 201 208 196 189 181 187 165 190 202 192 164 153 155 145 173 225 189 167 221 237 208 245 183 203 155 170 170 176 170 163 156 176 183 176 182 189 194 178 174 172 172
63 61 60 69 83 73 90 120 158 177 195 186 184 205 185 42 352 346 356 348 338 320 316 301 273 257 245 230 231 207 206 206 194 204 217 220 211 209 208 201 202 196 195 203 207 206 193 187 184 178 189 190 200 168 188 178 175 163 145 183 106 208 218 207 166 248 178 196 211 167 177 167 162 164 172 185 187 185 181 187 191 176 169 174 173
62 46 39 42 39 33 36 47 45 0 316 281 191 146 71 78 36 354 342 328 303 298 270 256 265 250 234 232 243 222 218 219 213 215 221 217 206 217 242 220 206 203 197 204 208 207 195 185 189 185 196 202 184 178 187 193 197 184 189 190 177 165 185 183 132 226 218 212 178 151 159 177 144 167 181 185 187 189 186 189 186 184 173 177 182
45 49 54 48 41 22 10 6 11 352 337 8 3 32 26 58 120 271 240 261 255 261 243 250 258 251 223 221 227 221 215 216 218 217 220 220 210 203 221 229 228 213 205 201 206 208 201 193 181 190 196 184 169 193 193 184 186 220 202 211 208 222 204 154 198 114 178 233 175 158 183 180 155 176 188 196 187 182 189 190 189 188 180 180 184
55 48 42 39 40 28 38 42 43 35 24 24 16 15 22 5 228 230 229 238 268 275 289 260 273 282 257 222 214 221 217 216 230 223 213 218 210 211 220 234 234 218 209 211 213 203 208 195 186 195 190 188 192 195 197 179 184 200 195 200 205 225 242 253 163 167 160 173 199 102 148 197 188 204 214 203 188 183 185 190 187 188 182 178 181
50 49 48 44 36 30 33 49 43 33 25 27 23 11 10 14 21 8 16 356 341 326 322 324 305 284 276 272 248 241 198 223 225 224 226 206 205 233 224 261 243 233 217 223 221 211 207 200 192 192 195 197 200 203 193 198 196 192 175 200 198 203 215 241 185 137 141 162 185 181 188 164 219 232 225 220 206 185 185 186 188 185 179 181 180
52 49 43 40 35 25 34 51 46 37 27 33 26 20 20 21 25 10 13 4 353 344 355 347 345 338 324 305 277 250 209 207 222 222 238 226 227 227 219 225 238 241 232 227 215 210 214 211 208 206 201 197 200 198 201 203 201 196 188 176 184 191 207 230 200 168 156 157 165 194 186 178 194 211 204 211 206 188 188 183 183 184 179 181 180
53 46 39 32 30 25 34 50 41 42 38 38 33 27 21 18 20 17 20 11 2 1 358 352 347 348 341 339 341 323 329 349 299 264 219 219 215 219 236 280 267 263 256 246 236 226 215 217 222 222 216 206 200 203 204 206 204 198 193 183 191 190 196 195 184 182 170 166 145 181 186 196 196 183 208 199 197 186 185 185 183 181 183 184 184